Дата Время Давление Темп. Влажн. Скор.ветра Напр.ветра Макс.ветер Осадки/час Осадки
05.09.26 08:00 731.6 13.6 92.5 2.5 199 7.3 0 0
05.09.26 07:00 733.2 13.7 90.9 2.3 192 6.3 0 0
05.09.26 06:00 734.5 14.2 86.6 2.2 189 5.6 0 0
05.09.26 05:00 735.2 14.2 85.9 2.2 190 4.5 0 0
05.09.26 04:00 736.4 14.1 86.2 1.7 188 4 0 0
05.09.26 03:00 737.2 14.7 83.4 1.3 195 5 0 0
05.09.26 02:00 738.1 14.8 83 2.1 204 4.2 0 0
05.09.26 01:00 738.6 14.9 81.8 1.4 192 4.1 0 0
05.09.26 00:00 739.3 15 81.2 1.2 190 4.3 0 0
04.09.26 23:00 739.7 15.4 79.9 1.3 195 3.4 0 0
04.09.26 22:00 740.4 15.9 79 1.5 194 3.5 0 0
04.09.26 21:00 740.9 16.8 76.7 1.3 196 3.2 0 0
04.09.26 20:00 741 18 72.3 1.3 190 3.4 0 0
04.09.26 19:00 741 19.5 67.2 1.7 209 4.7 0 0
04.09.26 18:00 740.9 20.9 62.2 2 199 6.2 0 0
04.09.26 17:00 740.8 21.9 57.1 1.9 214 6.3 0 0
04.09.26 16:00 742.1 21.4 58.8 2.3 212 6.5 0 0
04.09.26 15:00 741.3 21.8 58.1 2 230 6.1 0 0
04.09.26 14:00 741.8 21.4 60.7 1.7 194 4.9 0 0
04.09.26 13:00 742.9 20.2 65.2 2.4 203 5.8 0 0
04.09.26 12:00 743.4 18.8 69.2 1.9 221 4.2 0 0
04.09.26 11:00 743.2 18.9 73.4 1.5 246 5 0 0
04.09.26 10:00 744 16.6 85.7 1.2 207 4.4 0 0
04.09.26 09:00 744.5 13.9 94.2 0.9 184 3.3 0 0